Probability
1 1 3 4 3 2 1 2 3 2 1 0 0 0 0 1 1 1 1 3 4 4 3 1 0 0 0 0 0 0 0 0 0 0 0 0 0 0 0 0 1 1 1
2 2 3 4 3 3 2 3 3 3 1 0 0 0 0 1 1 1 1 2 3 2 2 1 0 0 0 0 0 0 0 0 0 0 0 0 0 0 0 0 0 0 0
3 3 3 3 3 2 3 3 4 4 1 0 0 0 0 1 1 0 0 1 1 0 0 0 0 0 0 0 0 0 0 0 0 0 0 0 0 0 0 0 0 0 0
3 3 3 3 2 1 1 2 3 3 1 0 0 0 0 0 0 0 0 0 0 0 0 0 0 0 0 0 0 0 0 0 0 0 0 0 0 0 0 0 0 0 0
2 2 3 3 2 1 0 1 1 2 1 0 0 0 0 0 0 0 0 0 1 1 1 0 0 0 0 0 0 0 0 1 1 0 0 0 0 0 1 1 1 0 0
1 2 3 3 2 1 0 0 0 0 0 0 0 0 0 0 0 0 0 0 1 2 1 0 0 0 1 1 1 1 1 1 1 0 0 0 0 1 2 2 2 1 0
1 1 2 3 3 1 0 0 0 0 0 0 0 0 0 0 0 0 0 0 1 1 1 0 0 0 1 2 2 2 2 2 1 0 0 0 0 1 2 3 4 3 3
0 0 1 3 3 2 0 0 1 1 0 0 0 0 0 0 0 0 0 1 2 2 1 1 1 1 2 3 3 3 4 3 2 0 0 0 0 1 2 4 6 7 7
0 0 1 2 3 2 1 1 1 0 0 0 0 0 0 0 0 0 1 2 4 3 1 1 1 2 3 3 3 4 5 5 3 1 0 0 0 1 2 5 7 8 8
0 0 0 1 1 1 0 0 0 0 0 0 0 0 0 0 0 0 1 2 4 4 2 2 3 4 4 4 3 4 4 4 3 1 0 0 1 1 2 3 5 6 6
0 0 0 0 0 0 0 0 0 0 0 0 0 0 0 0 0 0 0 2 3 4 4 5 5 6 5 3 3 3 4 3 2 1 0 0 1 1 1 2 3 5 6
0 0 0 0 0 0 0 0 0 0 0 0 0 0 0 0 0 0 0 2 3 3 4 5 5 5 4 2 1 2 3 2 2 1 0 0 1 1 1 2 4 5 7
0 0 0 0 0 0 0 0 0 0 0 0 0 0 0 0 0 0 0 1 1 1 1 2 2 2 1 1 0 1 1 1 1 1 0 1 3 4 3 3 4 4 4
0 0 0 0 0 0 0 0 0 0 0 0 0 0 0 0 0 0 0 0 0 0 0 0 0 0 0 0 0 1 1 0 1 1 1 3 6 7 5 5 4 3 3
0 1 1 1 1 1 1 0 0 0 0 0 0 0 0 0 0 0 0 0 0 0 0 0 0 0 0 0 0 1 1 1 2 2 2 4 7 8 7 6 5 5 5
1 1 2 2 2 2 1 1 0 0 0 0 0 0 0 0 0 0 0 0 0 0 0 0 0 0 0 0 0 1 1 2 3 2 1 2 5 7 7 7 7 8 9
0 1 1 1 1 2 2 2 1 0 1 1 1 1 0 0 0 0 0 0 0 0 0 0 0 0 0 0 0 0 0 1 2 2 1 0 2 4 5 7 9 11 12
1 1 1 1 1 1 2 3 2 1 1 2 2 2 1 1 1 0 0 0 0 0 0 0 0 0 0 0 0 0 0 0 1 1 0 0 0 2 5 7 10 13 14
3 4 4 3 2 1 2 3 3 1 1 1 2 3 3 2 2 1 0 0 0 0 0 0 0 0 0 0 0 0 0 0 0 0 0 0 1 2 3 4 8 12 15
7 6 5 4 3 3 3 4 4 3 1 0 1 2 3 3 3 2 1 0 0 0 0 0 0 0 0 0 0 0 0 0 0 0 0 0 1 2 2 2 3 7 10
10 9 7 6 5 4 5 5 6 4 1 0 0 1 1 3 3 3 3 2 1 1 0 0 0 0 0 0 1 1 0 0 0 0 0 1 2 3 2 1 0 1 2
12 10 9 8 6 5 4 3 4 3 1 0 0 0 1 2 2 2 3 4 3 2 1 0 0 0 0 0 1 1 0 0 0 0 0 1 2 2 2 1 0 0 0
12 11 9 8 6 4 2 2 2 2 1 2 2 1 0 1 2 2 2 3 3 3 2 1 1 0 0 1 1 1 1 1 1 0 1 1 1 1 1 0 0 0 0
11 10 8 6 4 3 3 3 4 3 2 4 5 3 1 1 1 2 2 3 4 4 4 3 2 1 2 3 2 1 1 2 1 1 1 2 2 1 0 0 0 0 1
12 12 10 7 5 4 4 6 7 7 6 6 6 5 3 2 2 2 4 5 6 6 4 4 4 5 5 5 3 1 1 2 1 0 1 1 2 1 0 0 0 1 2
14 14 12 10 7 6 6 7 9 11 10 8 7 6 5 3 2 3 5 7 9 7 5 4 6 8 8 6 3 1 0 1 0 0 0 0 1 0 0 0 0 1 2
Wind_Speed
3 4 8 11 12 13 13 13 14 14 14 14 14 14 14 14 14 14 14 14 14 14 13 13 13 12 12 11 11 11 11 11 10 10 10 9 9 9 9 9 8 6 9
6 5 9 11 12 13 13 13 13 14 14 13 13 13 13 13 13 13 14 14 14 13 12 12 12 11 11 11 10 10 10 10 9 9 9 8 8 8 8 8 8 5 8
8 6 8 11 12 13 13 13 14 14 13 13 12 12 12 12 12 13 13 13 12 12 12 11 10 10 10 9 9 9 8 8 8 7 7 4 5 8 8 9 9 9 8
8 6 7 11 13 13 13 13 13 13 13 13 12 11 11 12 12 12 12 12 11 11 10 10 9 9 9 8 8 7 7 7 6 6 3 3 4 8 9 9 9 9 9
7 5 8 13 13 13 13 13 13 13 12 12 12 11 11 11 11 11 11 11 10 10 9 9 8 8 7 7 7 6 5 5 5 4 3 3 3 7 9 9 9 9 9
7 6 8 13 14 13 13 12 12 12 12 12 12 11 10 10 11 10 10 9 9 9 8 8 7 7 6 6 5 5 5 4 4 2 3 3 3 7 9 9 9 9 9
7 5 7 13 14 13 13 12 12 12 11 11 11 10 10 9 10 10 9 8 8 8 7 7 6 6 5 5 4 4 3 3 3 2 3 3 4 8 9 9 8 9 9
8 6 7 13 13 13 13 12 12 12 11 10 10 10 9 9 9 9 8 7 7 7 7 6 6 5 4 5 4 4 3 3 3 4 3 3 6 9 9 9 8 9 9
7 6 5 6 8 11 12 11 11 11 10 10 10 9 9 9 9 8 7 7 6 6 6 6 6 5 4 4 4 4 4 4 3 3 5 3 7 9 9 9 9 9 9
6 5 5 5 5 5 6 10 10 10 10 9 9 8 8 8 7 6 5 6 6 5 5 5 5 5 4 4 4 4 4 3 2 3 3 4 9 10 10 10 10 9 9
7 4 5 5 4 4 4 7 7 9 8 7 6 7 6 2 2 3 4 5 5 5 5 5 4 5 4 4 5 4 3 1 2 2 3 7 10 10 10 10 10 10 9
8 6 5 5 5 4 4 4 2 3 3 3 2 3 2 2 2 3 3 4 4 4 4 4 4 3 3 1 3 3 1 1 2 2 3 8 10 11 11 10 10 10 10
9 8 6 6 5 4 3 3 2 1 2 2 3 3 2 2 1 1 1 1 2 2 1 1 1 1 1 2 2 2 2 2 2 2 3 9 10 11 11 11 11 10 10
8 8 6 6 5 4 4 3 3 2 2 2 2 3 2 1 1 1 1 1 1 1 1 1 1 1 2 3 3 3 2 2 2 2 4 9 10 11 11 11 11 11 10
8 7 7 6 5 4 3 3 3 2 2 3 2 2 3 2 2 1 1 1 1 1 1 1 2 2 3 3 3 3 4 4 4 4 3 9 10 10 11 11 11 11 10
7 7 6 6 5 4 3 3 2 2 2 2 2 3 3 2 2 1 1 1 1 2 2 2 3 2 3 2 3 3 3 4 4 4 4 6 10 11 11 11 11 11 11
7 6 6 6 5 4 4 3 3 2 2 2 2 3 3 3 3 2 1 1 2 2 2 1 2 1 2 2 3 3 3 3 4 4 4 4 5 9 11 11 11 11 11
7 6 6 6 5 4 3 3 2 2 2 2 2 2 2 2 3 2 2 1 1 1 1 1 1 1 2 2 2 2 2 2 3 4 4 4 4 4 7 11 11 11 11
7 7 6 5 5 4 3 2 2 2 2 2 2 2 2 2 3 2 2 1 1 1 1 1 1 1 1 2 3 2 2 2 2 3 4 5 5 5 4 7 11 11 11
6 6 6 5 4 4 2 1 1 1 1 1 1 2 2 2 2 2 1 1 1 0 0 1 1 1 1 2 3 3 2 2 2 2 3 3 4 5 5 5 4 6 9
5 5 4 4 4 3 2 2 1 1 1 1 1 3 3 2 2 2 1 1 1 1 2 1 1 1 1 1 1 3 3 2 2 2 2 2 3 4 4 4 4 3 3
6 5 5 3 3 3 2 2 2 2 1 2 1 1 2 2 2 2 2 2 2 1 1 1 1 0 1 0 1 1 3 4 3 2 1 1 2 2 3 4 4 4 3
7 6 5 4 3 3 3 1 1 1 1 0 1 1 2 2 2 2 2 2 2 2 2 2 2 2 1 1 1 2 1 2 3 3 2 1 1 1 1 2 3 4 5
7 6 5 5 3 3 3 2 3 2 2 3 2 2 2 1 1 2 2 2 2 2 2 2 2 2 2 1 1 1 2 3 1 3 3 2 2 2 2 2 2 3 4
7 7 6 5 4 3 3 3 3 2 2 1 1 1 1 2 2 2 2 2 2 2 2 2 1 1 2 2 1 1 1 0 1 2 3 3 3 2 2 2 2 2 3
5 6 5 5 4 3 3 3 3 3 2 2 2 2 1 1 1 1 2 2 2 1 2 2 2 2 2 1 1 1 1 1 2 2 2 3 3 3 2 2 2 2 2
Wind_Direction
143 150 129 122 117 114 114 114 113 112 110 108 107 107 109 110 112 113 113 114 116 116 116 116 117 117 116 118 121 123 125 125 124 123 124 123 125 127 128 127 124 120 124
145 145 130 123 119 118 116 116 115 115 113 112 111 110 112 113 114 117 117 117 118 117 117 118 118 119 120 120 120 123 128 129 130 130 127 122 124 131 131 132 131 130 132
137 140 131 125 123 121 119 118 117 115 117 116 116 116 116 117 118 121 121 121 122 121 120 121 122 123 122 122 124 127 133 136 136 135 127 119 124 129 133 136 137 136 136
137 138 132 128 127 125 121 118 119 117 118 119 120 121 121 119 120 122 125 126 126 126 127 127 129 129 130 131 131 135 141 145 150 144 132 136 136 135 137 138 142 144 144
131 132 136 132 130 128 125 123 122 121 121 122 124 124 122 123 123 124 129 131 132 133 133 134 135 136 139 141 140 145 153 153 157 145 133 139 142 150 148 148 148 149 149
129 135 139 134 132 132 131 128 127 126 125 125 126 127 126 129 130 131 133 136 138 138 139 139 141 145 143 146 154 164 171 163 156 140 141 149 157 162 161 161 159 158 158
134 134 138 135 135 136 135 132 130 130 131 130 130 131 132 135 138 138 139 143 144 148 150 148 149 150 157 166 174 180 187 183 162 156 158 161 170 169 169 168 167 166 167
137 136 140 141 140 140 140 138 136 135 137 136 135 135 138 143 146 146 147 152 155 158 160 161 161 167 179 184 194 204 206 201 157 162 168 174 180 178 177 176 177 175 176
136 135 136 142 143 146 146 145 143 142 144 143 141 141 143 147 151 155 157 162 166 168 171 172 174 188 201 208 216 219 225 206 167 174 185 187 188 187 186 184 182 183 182
132 138 141 138 136 141 149 150 148 147 148 149 150 150 150 154 158 163 166 172 179 184 186 187 191 205 217 229 238 241 237 215 193 194 197 197 198 194 191 188 188 189 189
138 145 143 142 142 146 152 157 155 154 155 157 156 158 155 145 151 167 179 184 191 194 194 200 209 213 226 239 249 254 254 210 198 201 196 202 200 198 195 192 192 193 194
156 164 160 158 160 160 162 145 154 160 157 152 159 164 154 157 182 188 193 204 207 208 210 216 222 226 239 255 260 262 246 212 209 206 203 201 201 200 197 195 194 195 197
161 162 163 162 163 167 155 150 162 162 158 169 179 177 168 163 175 183 180 217 219 202 215 241 250 245 246 256 262 247 232 204 202 211 208 199 197 198 197 197 198 199 202
156 163 166 165 163 166 153 159 163 159 163 171 177 165 155 156 161 163 172 196 193 200 200 220 250 255 256 252 241 238 231 214 200 201 208 203 199 202 202 200 203 205 208
155 163 167 165 161 158 151 166 158 166 168 171 167 168 163 163 167 173 183 190 203 201 197 205 234 241 248 254 245 224 220 219 206 203 206 203 201 203 205 206 209 211 214
154 157 159 158 157 150 148 158 164 168 168 166 171 178 174 167 167 175 187 198 218 214 206 198 217 230 242 244 248 241 237 225 207 207 206 208 210 209 210 211 214 218 219
155 154 156 155 151 145 149 158 160 169 163 170 183 183 176 170 175 177 183 207 226 213 202 198 237 243 259 263 261 252 238 229 208 207 205 206 213 215 215 215 217 220 222
153 154 160 157 153 154 151 145 150 162 163 175 180 177 174 173 174 171 182 212 215 192 186 197 221 256 275 275 275 275 262 245 221 211 206 206 208 216 220 218 218 220 223
154 152 152 148 153 156 156 150 161 164 178 182 170 175 178 190 182 172 190 215 206 197 199 227 219 215 259 283 280 280 278 267 238 223 216 210 208 210 213 218 220 223 226
143 145 145 144 147 148 145 126 106 107 162 161 170 191 185 194 186 178 197 218 200 186 249 257 266 260 239 257 282 294 281 271 252 243 233 219 213 212 211 213 214 226 225
128 130 138 143 151 143 145 154 158 180 190 181 197 201 203 206 190 179 211 214 199 198 220 229 236 274 286 297 1 327 317 298 271 246 237 226 223 215 204 205 198 204 221
142 139 137 150 161 163 171 173 175 170 192 198 218 212 210 205 205 199 195 208 208 204 232 224 178 209 295 58 131 37 338 336 324 288 259 236 237 218 205 205 200 199 204
153 156 159 168 172 178 170 130 95 64 41 12 266 256 243 215 213 211 201 201 199 193 211 221 198 178 240 290 148 148 159 255 301 314 302 282 260 249 230 218 206 203 200
168 163 165 172 174 184 166 149 155 167 197 223 223 227 252 244 232 219 211 222 214 202 205 223 196 190 177 231 281 217 188 183 198 303 316 311 281 249 240 230 217 211 204
167 164 170 165 173 179 168 164 164 186 213 221 216 216 246 264 252 236 218 218 203 207 217 221 206 196 188 192 208 241 263 245 181 199 285 310 315 285 255 232 216 211 211
168 166 163 165 185 191 185 181 180 194 201 188 205 214 244 265 269 255 224 211 199 200 218 221 215 208 206 185 192 190 187 204 217 199 239 270 282 282 277 258 231 221 220